From 01/10/2019 00:00 to 01/26/2019 00:00

Date LAKE ELEVATION [FT] PRECIPITATION INCREMENT [IN] PRECIPITATION TOTAL [IN] AIR TEMPERATURE [F] RELATIVE HUMIDITY [%] RELEASE [CFS]
01/24/2019 04:00 -- -- -- -- -- 28.0
01/24/2019 03:00 114.44 0.11 -- 48.0 -- 27.5
01/24/2019 02:00 114.44 0.09 -- 44.0 -- 27.0
01/24/2019 01:00 114.44 0.08 -- 43.0 -- 27.3
01/24/2019 00:00 114.44 0.04 -- 42.0 -- 27.0
01/23/2019 23:00 114.44 0.00 -- 42.0 -- 27.3
01/23/2019 22:00 114.45 0.00 -- 41.0 -- 27.5
01/23/2019 21:00 114.44 0.01 -- 39.0 -- 28.0
01/23/2019 20:00 114.45 0.00 -- 40.0 -- 28.0
01/23/2019 19:00 114.45 0.01 -- 40.0 -- 28.0
01/23/2019 18:00 114.45 0.01 -- 40.0 -- 28.0
01/23/2019 17:00 114.44 0.00 -- 39.0 -- 28.0
01/23/2019 16:00 114.44 0.01 -- 39.0 -- 28.0
01/23/2019 15:00 114.45 0.01 -- 40.0 -- 28.0
01/23/2019 14:00 114.45 0.00 -- 40.0 -- 28.0
01/23/2019 13:00 114.45 0.00 -- 37.0 -- 28.0
01/23/2019 12:00 114.45 0.00 -- 33.0 -- 28.0
01/23/2019 11:00 114.45 0.00 -- 30.0 -- 27.5
01/23/2019 10:00 114.43 0.00 -- 27.0 -- 27.0
01/23/2019 09:00 114.43 0.00 -- 25.0 -- 27.0
01/23/2019 08:00 114.44 0.00 -- 23.8 -- 27.0
01/23/2019 07:00 114.44 0.00 -- 22.6 -- 27.0
01/23/2019 06:00 114.44 0.00 -- 21.3 -- 27.0
01/23/2019 05:00 114.44 0.00 -- 20.1 -- 27.0
01/23/2019 04:00 114.45 0.00 -- 18.9 -- 27.0
01/23/2019 03:00 114.45 0.00 -- 17.7 -- 27.0
01/23/2019 02:00 114.45 0.00 -- 16.4 -- 27.0
01/23/2019 01:00 114.45 0.00 -- 15.2 -- 27.0
01/23/2019 00:00 114.45 0.00 0.09 14.0 -- 28.0
01/22/2019 23:00 114.44 0.00 -- 16.0 -- 27.0
01/22/2019 22:00 114.44 0.00 -- 17.0 -- 27.3
01/22/2019 21:00 114.44 0.00 -- 18.0 -- 27.0
01/22/2019 20:00 114.44 0.00 -- 18.0 -- 27.0
01/22/2019 19:00 114.44 0.00 -- 19.0 -- 27.5
01/22/2019 18:00 114.44 0.00 -- 20.0 -- 27.5
01/22/2019 17:00 114.44 0.00 -- 22.0 -- 27.3
01/22/2019 16:00 114.45 0.00 -- 23.0 -- 28.0
01/22/2019 15:00 114.45 0.00 -- 23.0 -- 28.0
01/22/2019 14:00 114.45 0.00 -- 22.0 -- 27.8
01/22/2019 13:00 114.44 0.00 -- 20.0 -- 27.5
01/22/2019 12:00 114.45 0.00 -- 17.0 -- 28.0
01/22/2019 11:00 114.45 0.00 -- 15.0 -- 28.0
01/22/2019 10:00 114.46 0.00 -- 11.0 -- 28.0
01/22/2019 09:00 114.46 0.00 -- 9.0 -- 28.0
01/22/2019 08:00 114.46 0.00 -- 8.7 -- 28.0
01/22/2019 07:00 114.46 0.00 -- 8.3 -- 28.0
01/22/2019 06:00 114.46 0.00 -- 8.0 -- 28.0
01/22/2019 05:00 114.46 0.00 -- 7.7 -- 28.0
01/22/2019 04:00 114.46 0.00 -- 7.3 -- 28.0
01/22/2019 03:00 114.46 0.00 -- 7.0 -- 28.0
01/22/2019 02:00 114.46 0.00 -- 6.7 -- 28.0
01/22/2019 01:00 114.46 0.00 -- 6.3 -- 28.0
01/22/2019 00:00 114.46 0.00 0.00 6.0 -- 28.0
01/21/2019 23:00 114.46 0.00 -- 5.7 -- 28.0
01/21/2019 22:00 114.46 0.00 -- 5.3 -- 28.0
01/21/2019 21:00 114.46 0.00 -- 5.0 -- 28.0
01/21/2019 20:00 114.46 0.00 -- 4.7 -- 28.0
01/21/2019 19:00 114.46 0.00 -- 4.3 -- 28.0
01/21/2019 18:00 114.46 0.00 -- 4.0 -- 28.0
01/21/2019 17:00 114.46 0.00 -- 3.7 -- 28.0
01/21/2019 16:00 114.46 0.00 -- 3.3 -- 28.0
01/21/2019 15:00 114.46 0.00 -- 3.0 -- 28.0
01/21/2019 14:00 114.45 0.00 -- 3.0 -- 28.0
01/21/2019 13:00 114.46 0.00 -- 2.0 -- 28.3
01/21/2019 12:00 114.45 0.00 -- 0.0 -- 28.5
01/21/2019 11:00 114.45 0.00 -- 0.0 -- 28.0
01/21/2019 10:00 114.46 0.00 -- 0.0 -- 28.0
01/21/2019 09:00 114.46 0.00 -- 0.0 -- 28.0
01/21/2019 08:00 114.45 0.00 -- 1.0 -- 28.0
01/21/2019 07:00 114.45 0.00 -- 1.0 -- 28.0
01/21/2019 06:00 114.45 0.00 -- 1.0 -- 28.0
01/21/2019 05:00 114.46 0.00 -- 1.0 -- 28.0
01/21/2019 04:00 114.46 0.00 -- 2.0 -- 28.3
01/21/2019 03:00 114.45 0.00 -- 2.0 -- 28.0
01/21/2019 02:00 114.46 0.00 -- 3.0 -- 28.3
01/21/2019 01:00 114.46 0.00 -- 3.0 -- 28.0
01/21/2019 00:00 114.45 0.00 0.00 4.0 -- 28.0
01/20/2019 23:00 114.45 0.00 -- 5.0 -- 28.0
01/20/2019 22:00 114.45 0.00 -- 7.0 -- 28.0
01/20/2019 21:00 114.45 0.00 -- 11.0 -- 28.0
01/20/2019 20:00 114.44 0.00 -- 18.0 -- 28.0
01/20/2019 19:00 114.44 0.00 -- 21.0 -- 28.0
01/20/2019 18:00 114.45 0.00 -- 21.0 -- 28.0
01/20/2019 17:00 114.45 0.00 -- 19.0 -- 28.0
01/20/2019 16:00 114.44 0.00 -- 18.0 -- 27.5
01/20/2019 15:00 114.44 0.00 -- 16.0 -- 27.8
01/20/2019 14:00 114.44 0.00 -- 15.0 -- 27.3
01/20/2019 13:00 114.44 0.00 -- 14.0 -- 27.0
01/20/2019 12:00 114.44 0.00 -- 13.0 -- 27.0
01/20/2019 11:00 114.43 0.00 -- 13.0 -- 27.0
01/20/2019 10:00 114.43 0.00 -- 12.0 -- 27.0
01/20/2019 09:00 114.43 0.00 -- 11.0 -- 27.0
01/20/2019 08:00 114.42 0.00 -- 11.0 -- 27.0
01/20/2019 07:00 114.42 0.00 -- 12.0 -- 26.5
01/20/2019 06:00 114.41 0.00 -- 14.0 -- 26.0
01/20/2019 05:00 114.41 0.00 -- 14.0 -- 26.0
01/20/2019 04:00 114.41 0.00 -- 16.0 -- 26.0
01/20/2019 03:00 114.41 0.00 -- 17.0 -- 26.0
01/20/2019 02:00 114.40 0.00 -- 16.0 -- 26.0
01/20/2019 01:00 114.40 0.00 -- 16.0 -- 26.0
01/20/2019 00:00 114.40 0.00 0.00 17.0 -- 25.5
01/19/2019 23:00 114.39 0.00 -- 24.0 -- 25.0
01/19/2019 22:00 114.39 0.00 -- 24.0 -- 25.0
01/19/2019 21:00 114.39 0.00 -- 24.0 -- 25.0
01/19/2019 20:00 114.39 0.00 -- 25.0 -- 25.0
01/19/2019 19:00 114.38 0.00 -- 25.0 -- 25.0
01/19/2019 18:00 114.38 0.00 -- 25.0 -- 25.0
01/19/2019 17:00 114.38 0.00 -- 25.0 -- 25.0
01/19/2019 16:00 114.38 0.00 -- 27.0 -- 25.0
01/19/2019 15:00 114.37 0.00 -- 28.0 -- 25.0
01/19/2019 14:00 114.38 0.00 -- 29.0 -- 25.0
01/19/2019 13:00 114.37 0.00 -- 28.0 -- 25.0
01/19/2019 12:00 114.37 0.00 -- 28.0 -- 25.0
01/19/2019 11:00 114.37 0.00 -- 27.0 -- 24.5
01/19/2019 10:00 114.37 0.00 -- 26.0 -- 24.0
01/19/2019 09:00 114.36 0.00 -- 25.0 -- 24.0
01/19/2019 08:00 114.36 0.00 -- 23.0 -- 24.0
01/19/2019 07:00 114.36 0.00 -- 24.0 -- 24.0
01/19/2019 06:00 114.36 0.00 -- 25.0 -- 24.0
01/19/2019 05:00 114.35 0.00 -- 26.0 -- 24.0
01/19/2019 04:00 114.36 0.00 -- 28.0 -- 24.0
01/19/2019 03:00 114.35 0.00 -- 25.0 -- 24.0
01/19/2019 02:00 114.35 0.00 -- 26.0 -- 24.0
01/19/2019 01:00 114.35 0.00 -- 30.0 -- 24.0
01/19/2019 00:00 114.35 0.00 0.00 31.0 -- 24.0
01/18/2019 23:00 114.35 0.00 -- 30.0 -- 24.0
01/18/2019 22:00 114.35 0.00 -- 30.0 -- 24.0
01/18/2019 21:00 114.35 0.00 -- 31.0 -- 24.0
01/18/2019 20:00 114.35 0.00 -- 35.0 -- 24.0
01/18/2019 19:00 114.35 0.00 -- 35.0 -- 24.0
01/18/2019 18:00 114.35 0.00 -- 35.0 -- 24.0
01/18/2019 17:00 114.35 0.00 -- 35.0 -- 24.0
01/18/2019 16:00 114.35 0.00 -- 36.0 -- 24.0
01/18/2019 15:00 114.35 0.00 -- 37.0 -- 24.0
01/18/2019 14:00 114.36 0.00 -- 37.0 -- 24.0
01/18/2019 13:00 114.36 0.00 -- 35.0 -- 24.0
01/18/2019 12:00 114.35 0.00 -- 30.0 -- 22.5
01/18/2019 11:00 114.28 0.00 -- 26.0 -- 21.0
01/18/2019 10:00 114.28 0.00 -- 24.0 -- 21.0
01/18/2019 09:00 114.27 0.00 -- 20.0 -- 20.0
01/18/2019 08:00 114.26 0.00 -- 18.0 -- 18.5
01/18/2019 07:00 114.25 0.00 -- 16.0 -- 18.0
01/18/2019 06:00 114.25 0.00 -- 18.0 -- 18.0
01/18/2019 05:00 114.24 0.00 -- 19.0 -- 17.0
01/18/2019 04:00 114.23 0.00 -- 20.0 -- 17.0
01/18/2019 03:00 114.22 0.00 -- 20.0 -- 17.0
01/18/2019 02:00 114.22 0.00 -- 20.0 -- 17.0
01/18/2019 01:00 114.21 0.00 -- 20.0 -- 16.3
01/18/2019 00:00 114.20 0.00 0.00 20.0 -- 16.0
01/17/2019 23:00 114.19 0.00 -- 20.0 -- 16.0
01/17/2019 22:00 114.19 0.00 -- 19.0 -- 16.0
01/17/2019 21:00 114.20 0.00 -- 19.0 -- 16.0
01/17/2019 20:00 114.19 0.00 -- 19.0 -- 16.0
01/17/2019 19:00 114.18 0.00 -- 19.0 -- 15.8
01/17/2019 18:00 114.18 0.00 -- 20.0 -- 15.0
01/17/2019 17:00 114.17 0.00 -- 22.0 -- 15.0
01/17/2019 16:00 114.16 0.00 -- 23.0 -- 14.8
01/17/2019 15:00 114.14 0.00 -- 23.0 -- 13.8
01/17/2019 14:00 114.09 0.00 -- 23.0 -- 40.0
01/17/2019 13:00 114.10 0.00 -- 21.0 -- 40.3
01/17/2019 12:00 114.10 0.00 -- 20.0 -- 40.5
01/17/2019 11:00 114.11 0.00 -- 18.0 -- 41.0
01/17/2019 10:00 114.12 0.00 -- 16.0 -- 41.0
01/17/2019 09:00 114.12 0.00 -- 13.0 -- 42.0
01/17/2019 08:00 114.14 0.00 -- 11.0 -- 42.5
01/17/2019 07:00 114.15 0.00 -- 11.0 -- 43.0
01/17/2019 06:00 114.15 0.00 -- 12.0 -- 43.3
01/17/2019 05:00 114.16 0.00 -- 13.0 -- 43.0
01/17/2019 04:00 114.15 0.00 -- 15.0 -- 43.3
01/17/2019 03:00 114.17 0.00 -- 16.0 -- 44.0
01/17/2019 02:00 114.17 0.00 -- 19.0 -- 44.3
01/17/2019 01:00 114.19 0.00 -- 22.0 -- 45.0
01/17/2019 00:00 114.20 0.00 0.00 26.0 -- 45.3
01/16/2019 23:00 114.20 0.00 -- 29.0 -- 46.0
01/16/2019 22:00 114.21 0.00 -- 32.0 -- 46.0
01/16/2019 21:00 114.22 0.00 -- 34.0 -- 46.8
01/16/2019 20:00 114.24 0.00 -- 30.0 -- 47.5
01/16/2019 19:00 114.26 0.00 -- 34.0 -- 49.5
01/16/2019 18:00 114.32 0.00 -- 34.0 -- 53.3
01/16/2019 17:00 114.38 0.00 -- 36.0 -- 54.8
01/16/2019 16:00 114.40 0.00 -- 36.0 -- 55.8
01/16/2019 15:00 114.42 0.00 -- 36.0 -- 57.3
01/16/2019 14:00 114.44 0.00 -- 35.0 -- 58.0
01/16/2019 13:00 114.43 0.00 -- 35.0 -- 48.5
01/16/2019 12:00 114.20 0.00 -- 33.0 -- 45.0
01/16/2019 11:00 114.20 0.00 -- 31.0 -- 45.0
01/16/2019 10:00 114.20 0.00 -- 31.0 -- 45.0
01/16/2019 09:00 114.20 0.00 -- 27.0 -- 45.0
01/16/2019 08:00 114.20 0.00 -- 23.0 -- 45.3
01/16/2019 07:00 114.20 0.00 -- 21.0 -- 45.8
01/16/2019 06:00 114.21 0.00 -- 18.0 -- 46.0
01/16/2019 05:00 114.21 0.00 -- 17.0 -- 46.0
01/16/2019 04:00 114.21 0.00 -- 17.0 -- 46.0
01/16/2019 03:00 114.22 0.00 -- 17.0 -- 46.0
01/16/2019 02:00 114.22 0.00 -- 18.0 -- 46.5
01/16/2019 01:00 114.23 0.00 -- 18.0 -- 47.0
01/16/2019 00:00 114.23 0.00 0.00 19.0 -- 47.0
01/15/2019 23:00 114.24 0.00 -- 20.0 -- 47.0
01/15/2019 22:00 114.24 0.00 -- 22.0 -- 47.3
01/15/2019 21:00 114.25 0.00 -- 23.0 -- 48.0
01/15/2019 20:00 114.26 0.00 -- 25.0 -- 48.3
01/15/2019 19:00 114.26 0.00 -- 26.0 -- 49.0
01/15/2019 18:00 114.28 0.00 -- 28.0 -- 49.3
01/15/2019 17:00 114.29 0.00 -- 30.0 -- 50.5
01/15/2019 16:00 114.32 0.00 -- 31.0 -- 55.5
01/15/2019 15:00 114.51 0.00 -- 33.0 -- 62.3
01/15/2019 14:00 114.31 0.00 -- 34.0 -- 49.5
01/15/2019 13:00 114.26 0.00 -- 32.0 -- 47.3
01/15/2019 12:00 114.24 0.00 -- 31.0 -- 47.0
01/15/2019 11:00 114.24 0.00 -- 29.0 -- 47.8
01/15/2019 10:00 114.25 0.00 -- 25.0 -- 48.0
01/15/2019 09:00 114.25 0.00 -- 23.0 -- 48.5
01/15/2019 08:00 114.27 0.00 -- 21.0 -- 49.0
01/15/2019 07:00 114.27 0.00 -- 19.0 -- 49.0
01/15/2019 06:00 114.27 0.00 -- 16.0 -- 49.0
01/15/2019 05:00 114.28 0.00 -- 15.0 -- 49.3
01/15/2019 04:00 114.28 0.00 -- 16.0 -- 49.8
01/15/2019 03:00 114.29 0.00 -- 15.0 -- 50.0
01/15/2019 02:00 114.29 0.00 -- 16.0 -- 50.0
01/15/2019 01:00 114.29 0.00 -- 17.0 -- 50.0
01/15/2019 00:00 114.30 0.00 0.00 17.0 -- 50.0
01/14/2019 23:00 114.30 0.00 -- 18.0 -- 50.0
01/14/2019 22:00 114.30 0.00 -- 19.0 -- 50.5
01/14/2019 21:00 114.30 0.00 -- 20.0 -- 50.3
01/14/2019 20:00 114.30 0.00 -- 20.0 -- 50.0
01/14/2019 19:00 114.30 0.00 -- 23.0 -- 50.3
01/14/2019 18:00 114.30 0.00 -- 24.0 -- 50.8
01/14/2019 17:00 114.31 0.00 -- 27.0 -- 51.0
01/14/2019 16:00 114.32 0.00 -- 30.0 -- 51.0
01/14/2019 15:00 114.32 0.00 -- 29.0 -- 52.8
01/14/2019 14:00 114.38 0.00 -- 29.0 -- 52.5
01/14/2019 13:00 114.30 0.00 -- 27.0 -- 51.0
01/14/2019 12:00 114.31 0.00 -- 25.0 -- 51.0
01/14/2019 11:00 114.31 0.00 -- 24.0 -- 51.3
01/14/2019 10:00 114.32 0.00 -- 21.0 -- 51.8
01/14/2019 09:00 114.33 0.00 -- 17.0 -- 52.0
01/14/2019 08:00 114.34 0.00 -- 16.0 -- 52.0
01/14/2019 07:00 114.34 0.00 -- 15.0 -- 52.0
01/14/2019 06:00 114.34 0.00 -- 15.0 -- 53.0
01/14/2019 05:00 114.35 0.00 -- 14.0 -- 53.0
01/14/2019 04:00 114.35 0.00 -- 15.0 -- 53.0
01/14/2019 03:00 114.35 0.00 -- 14.0 -- 53.0
01/14/2019 02:00 114.35 0.00 -- 13.0 -- 53.0
01/14/2019 01:00 114.36 0.00 -- 13.0 -- 53.8
01/14/2019 00:00 114.36 0.00 0.00 13.0 -- 54.0
01/13/2019 23:00 114.37 0.00 -- 14.0 -- 54.0
01/13/2019 22:00 114.37 0.00 -- 15.0 -- 54.0
01/13/2019 21:00 114.37 0.00 -- 15.0 -- 54.0
01/13/2019 20:00 114.37 0.00 -- 16.0 -- 54.0
01/13/2019 19:00 114.37 0.00 -- 18.0 -- 54.0
01/13/2019 18:00 114.37 0.00 -- 20.0 -- 54.0
01/13/2019 17:00 114.37 0.00 -- 23.0 -- 54.0
01/13/2019 16:00 114.37 0.00 -- 26.0 -- 54.8
01/13/2019 15:00 114.39 0.00 -- 26.0 -- 56.0
01/13/2019 14:00 114.51 0.00 -- 26.0 -- 58.5
01/13/2019 13:00 114.37 0.00 -- 24.0 -- 54.0
01/13/2019 12:00 114.38 0.00 -- 22.0 -- 54.5
01/13/2019 11:00 114.38 0.00 -- 19.0 -- 54.3
01/13/2019 10:00 114.39 0.00 -- 15.0 -- 55.0
01/13/2019 09:00 114.39 0.00 -- 12.0 -- 55.3
01/13/2019 08:00 114.40 0.00 -- 10.0 -- 56.0
01/13/2019 07:00 114.40 0.00 -- 10.0 -- 56.0
01/13/2019 06:00 114.40 0.00 -- 10.0 -- 56.0
01/13/2019 05:00 114.41 0.00 -- 11.0 -- 56.0
01/13/2019 04:00 114.41 0.00 -- 11.0 -- 56.0
01/13/2019 03:00 114.41 0.00 -- 12.0 -- 56.3
01/13/2019 02:00 114.42 0.00 -- 13.0 -- 56.5
01/13/2019 01:00 114.42 0.00 -- 13.0 -- 57.0
01/13/2019 00:00 114.42 0.00 0.00 14.0 -- 57.0
01/12/2019 23:00 114.42 0.00 -- 14.0 -- 57.0
01/12/2019 22:00 114.42 0.00 -- 16.0 -- 57.0
01/12/2019 21:00 114.43 0.00 -- 16.0 -- 57.0
01/12/2019 20:00 114.43 0.00 -- 17.0 -- 57.0
01/12/2019 19:00 114.43 0.00 -- 19.0 -- 57.0
01/12/2019 18:00 114.43 0.00 -- 19.0 -- 57.0
01/12/2019 17:00 114.43 0.00 -- 20.0 -- 57.0
01/12/2019 16:00 114.43 0.00 -- 21.0 -- 57.0
01/12/2019 15:00 114.43 0.00 -- 22.0 -- 57.5
01/12/2019 14:00 114.43 0.00 -- 21.0 -- 57.5
01/12/2019 13:00 114.44 0.00 -- 20.0 -- 58.0
01/12/2019 12:00 114.44 0.00 -- 18.0 -- 58.0
01/12/2019 11:00 114.45 0.00 -- 16.0 -- 58.5
01/12/2019 10:00 114.46 0.00 -- 14.0 -- 59.0
01/12/2019 09:00 114.48 0.00 -- 12.0 -- 60.0
01/12/2019 08:00 114.49 0.00 -- 11.0 -- 60.0
01/12/2019 07:00 114.48 0.00 -- 10.0 -- 60.0
01/12/2019 06:00 114.47 0.00 -- 9.0 -- 60.0
01/12/2019 05:00 114.48 0.00 -- 9.0 -- 60.0
01/12/2019 04:00 114.49 0.00 -- 9.0 -- 60.0
01/12/2019 03:00 114.50 0.00 -- 10.0 -- 61.0
01/12/2019 02:00 114.50 0.00 -- 10.0 -- 61.0
01/12/2019 01:00 114.51 0.00 -- 10.0 -- 61.3
01/12/2019 00:00 114.51 0.00 0.00 11.0 -- 61.5
01/11/2019 23:00 114.52 0.00 -- 11.0 -- 62.0
01/11/2019 22:00 114.52 0.00 -- 11.0 -- 62.3
01/11/2019 21:00 114.53 0.00 -- 12.0 -- 62.0
01/11/2019 20:00 114.52 0.00 -- 13.0 -- 62.3
01/11/2019 19:00 114.51 0.00 -- 16.0 -- 61.0
01/11/2019 18:00 114.51 0.00 -- 17.0 -- 61.5
01/11/2019 17:00 114.52 0.00 -- 19.0 -- 61.8
01/11/2019 16:00 114.50 0.00 -- 21.0 -- 61.0
01/11/2019 15:00 114.50 0.00 -- 22.0 -- 60.8
01/11/2019 14:00 114.51 0.00 -- 23.0 -- 61.5
01/11/2019 13:00 114.49 0.00 -- 23.0 -- 60.8
01/11/2019 12:00 114.51 0.00 -- 22.0 -- 61.0
01/11/2019 11:00 114.51 0.00 -- 22.0 -- 61.8
01/11/2019 10:00 114.53 0.00 -- 21.0 -- 62.5
01/11/2019 09:00 114.53 0.00 -- 19.0 -- 63.0
01/11/2019 08:00 114.54 0.00 -- 18.0 -- 63.0
01/11/2019 07:00 114.55 0.00 -- 18.6 -- 63.0
01/11/2019 06:00 114.56 0.00 -- 19.1 -- 63.0
01/11/2019 05:00 114.56 0.00 -- 19.7 -- 63.0
01/11/2019 04:00 114.57 0.00 -- 20.3 -- 63.0
01/11/2019 03:00 114.58 0.00 -- 20.9 -- 63.0
01/11/2019 02:00 114.58 0.00 -- 21.4 -- 63.0
01/11/2019 01:00 114.58 0.00 -- 22.0 -- 66.0
01/11/2019 00:00 114.58 0.00 0.00 22.0 -- 65.0
01/10/2019 23:00 114.59 0.00 -- 23.0 -- 66.0
01/10/2019 22:00 114.58 0.00 -- 23.0 -- 65.8
01/10/2019 21:00 114.59 0.00 -- 24.0 -- 66.0
01/10/2019 20:00 114.59 -- -- 25.0 -- 65.8
01/10/2019 19:00 114.58 -- -- 26.0 -- 66.0
01/10/2019 18:00 114.59 0.00 -- 27.0 -- 65.8
01/10/2019 17:00 114.58 0.00 -- 28.0 -- 65.8
01/10/2019 16:00 114.59 0.00 -- 28.0 -- 65.5
01/10/2019 15:00 114.59 0.00 -- 30.0 -- 66.0
01/10/2019 14:00 114.58 0.00 -- 31.0 -- 65.5
01/10/2019 13:00 114.59 0.00 -- 30.0 -- 65.8
01/10/2019 12:00 114.58 0.00 -- 31.0 -- 65.5
01/10/2019 11:00 114.58 0.00 -- 32.0 -- 65.5
01/10/2019 10:00 114.58 0.00 -- 32.0 -- 65.3
01/10/2019 09:00 114.58 0.00 -- 30.0 -- 65.0
01/10/2019 08:00 114.58 0.00 -- 31.0 -- 65.0
01/10/2019 07:00 114.58 0.00 -- 32.0 -- 65.0
01/10/2019 06:00 114.58 0.00 -- 32.0 -- 65.0
01/10/2019 05:00 114.58 0.00 -- 33.0 -- 65.0
01/10/2019 04:00 -- -- -- 33.0 -- 65.0
01/10/2019 03:00 -- -- -- 33.0 -- 65.0
01/10/2019 02:00 -- -- -- 33.0 -- 65.0
01/10/2019 01:00 -- -- -- 33.0 -- 65.0
01/10/2019 00:00 -- -- -- 34.0 -- 65.0